Location: Unspecified
(0.0000°N, 0.0000°E)
Time: 08:53:59
(UTC+00:00)

S-56A Canister/Altair - Pass Details

Date: 18 December 2018
Orbit: 633 x 2500 km, 38.9° (Epoch: 24 March)

Event Time Altitude Azimuth Distance (km) Brightness Sun altitude
Rises 20:48:23 0° 200° (SSW) 2,919 11.1 -38.7°
Enters shadow 20:49:58 - 191° (S) 2,404 10.5 -39.0°
Reaches altitude 10° 20:51:22 10° 178° (S) 2,021 - -39.3°
Maximum altitude 20:54:17 17° 137° (SE) 1,685 - -39.9°
Drops below altitude 10° 20:57:30 10° 96° (E) 2,243 - -40.6°
Sets 21:01:03 0° 77° (ENE) 3,404 - -41.4°
